EHI
3 2 2 3 4 4 4 5 5 4 4 3 3 3 2 1 0 0 1 1 1 0 0 0 0 0 0 0 0 0 0 0 0 0 0 0 0 0 0 0 0 0 0
3 3 4 5 5 4 4 4 5 4 4 4 3 3 1 0 0 0 0 0 0 0 0 0 0 0 0 0 0 0 0 0 0 0 0 0 0 0 0 0 0 0 0
3 3 5 6 5 5 5 4 4 4 4 5 4 3 1 0 0 0 0 0 0 0 0 0 0 0 0 0 0 0 0 0 0 0 0 0 0 0 0 0 0 0 0
2 4 5 6 7 7 6 5 4 3 4 6 5 3 1 0 0 0 0 0 0 0 0 0 1 1 1 1 0 0 1 1 1 0 0 0 0 1 1 0 0 0 0
4 5 6 8 9 9 8 6 4 4 5 5 5 3 1 0 0 0 0 0 0 0 0 0 1 2 3 2 1 1 2 2 2 1 0 0 0 1 1 0 0 0 0
5 6 8 10 12 11 9 6 4 3 3 3 4 4 3 2 1 0 0 0 0 0 0 0 1 3 5 4 3 3 3 3 3 2 1 1 0 1 1 0 0 0 0
6 8 11 13 13 12 10 7 5 5 4 3 5 6 6 5 4 2 1 0 0 0 0 0 1 3 5 5 5 5 4 3 3 3 2 1 0 0 0 0 0 0 0
7 8 11 14 14 12 9 7 7 8 8 8 8 8 7 7 6 4 3 1 1 0 0 0 1 2 3 4 4 4 3 2 2 2 2 1 0 0 1 1 1 0 0
7 8 10 12 12 11 8 6 7 9 12 14 14 12 9 8 8 8 6 4 3 2 1 0 0 1 1 2 2 2 1 1 1 1 1 1 1 1 2 2 1 0 0
8 8 9 10 10 10 8 7 7 11 15 17 17 15 12 11 13 12 10 8 6 5 3 1 0 0 0 1 1 1 1 1 1 1 1 2 2 2 3 2 1 0 0
8 7 8 10 9 9 9 9 10 12 16 19 20 19 16 16 17 15 12 9 7 5 4 2 1 0 0 1 1 2 2 2 2 2 2 2 2 2 2 1 0 0 0
6 6 9 11 10 9 10 11 12 15 18 22 24 23 22 21 20 17 14 11 8 5 4 3 2 1 1 2 3 3 3 3 3 3 3 1 0 1 1 0 0 0 0
4 5 8 10 10 9 10 11 14 17 21 25 28 27 24 22 21 18 14 10 7 5 5 4 3 3 3 3 3 3 3 2 2 2 2 1 1 0 0 0 0 0 0
5 5 7 8 8 9 9 12 15 17 21 27 30 28 25 22 20 18 13 8 6 5 5 4 4 3 3 3 3 3 2 1 1 2 3 3 2 1 0 0 0 0 0
6 6 7 7 8 8 10 12 15 17 22 29 30 28 25 21 18 17 14 9 5 4 4 3 3 3 2 2 3 3 2 2 2 2 3 3 2 1 0 0 0 0 0
8 8 7 7 8 10 12 14 15 19 26 32 32 29 25 21 17 16 14 10 7 5 4 4 3 2 1 1 2 3 3 3 3 3 3 2 1 0 0 0 0 0 0
10 9 8 9 9 12 16 17 18 22 29 34 33 29 25 21 17 15 13 11 9 7 7 5 3 1 0 0 1 2 3 3 3 2 2 1 0 0 0 0 0 0 0
11 10 9 10 9 11 16 20 23 26 31 34 33 30 26 21 18 16 13 11 11 10 9 7 5 2 0 0 1 1 1 2 1 1 1 1 0 0 0 0 0 0 0
12 12 13 12 10 11 15 22 26 29 32 35 34 31 28 23 20 19 16 13 13 12 10 9 7 5 2 1 0 0 0 0 0 0 0 0 0 0 0 0 0 0 0
13 13 14 14 14 15 19 25 30 32 35 36 34 31 29 26 23 21 19 17 15 12 9 7 6 6 4 1 0 0 0 0 0 0 0 0 0 0 0 0 0 0 0
10 11 13 15 18 20 24 28 32 33 34 34 32 29 28 27 24 21 19 19 17 14 9 5 4 5 5 2 1 0 0 1 0 0 0 0 0 0 0 0 0 0 0
8 9 12 16 19 21 23 26 29 31 30 29 27 25 24 24 24 21 18 18 18 15 11 6 5 6 5 3 1 0 0 0 0 0 0 0 0 0 0 0 0 0 0
9 9 10 15 18 19 20 22 24 26 26 24 22 22 22 22 22 21 18 18 18 16 13 10 8 8 7 4 2 1 1 0 0 0 0 0 0 0 0 0 0 0 0
12 10 9 11 15 17 18 18 18 20 21 22 21 20 20 21 21 20 18 17 17 16 13 11 10 9 8 5 3 2 2 1 0 0 0 0 0 0 0 0 0 0 0
13 12 10 10 13 15 15 14 13 14 17 19 19 19 19 19 19 17 14 13 13 12 10 9 8 8 7 5 2 1 2 1 0 0 0 0 0 0 0 0 0 0 0
13 12 10 10 12 14 13 11 10 11 13 15 17 18 18 19 18 15 10 7 7 6 6 6 6 6 5 4 1 0 1 1 0 0 0 0 0 0 0 0 0 0 0
Wind_Speed
6 5 6 6 5 5 5 5 5 4 3 2 2 1 1 0 0 0 1 1 1 2 2 1 1 1 1 1 2 2 2 1 2 2 1 2 2 2 1 1 0 0 1
5 6 6 6 7 6 6 5 5 5 4 3 2 2 1 1 1 0 0 1 1 2 2 2 1 1 1 1 2 2 2 1 2 2 1 0 1 2 1 1 1 0 0
10 9 8 8 7 7 8 7 6 6 5 4 2 2 2 1 1 1 0 0 1 1 1 2 1 1 2 2 2 2 3 2 1 1 2 2 2 0 1 1 1 1 1
9 9 9 9 9 9 7 6 6 6 5 5 4 4 3 2 2 1 1 0 1 1 1 2 1 1 1 1 2 2 2 3 2 1 1 1 2 2 1 1 1 2 1
11 11 12 11 10 8 7 6 6 6 5 5 5 4 3 2 1 1 1 0 0 0 1 1 1 1 1 1 1 1 2 2 2 2 2 1 1 1 2 1 0 1 1
10 10 10 8 7 7 7 6 6 6 5 6 5 6 5 4 3 2 2 1 0 0 1 1 1 1 1 1 1 2 2 2 2 2 2 2 2 2 2 2 1 1 0
9 9 10 10 9 9 9 8 8 7 6 6 6 6 6 5 5 4 3 2 1 1 2 1 1 1 1 1 1 1 1 2 2 2 2 2 2 2 3 3 2 1 0
7 9 11 11 10 10 10 9 9 8 7 7 6 5 5 4 4 4 4 4 3 2 2 2 2 2 1 1 1 1 1 1 2 2 2 1 1 2 2 3 4 2 1
8 9 9 9 10 10 10 10 10 8 8 8 6 5 5 5 5 4 4 3 2 2 3 2 2 2 1 2 2 1 1 1 1 1 1 1 1 1 2 2 3 4 2
6 7 7 8 8 8 8 8 9 8 7 7 6 6 6 6 5 4 4 4 3 2 3 3 2 2 1 1 1 1 0 1 0 1 1 1 0 1 1 2 2 2 3
6 6 6 7 7 6 7 7 7 6 6 6 6 5 5 5 4 4 4 4 3 3 4 3 3 2 2 1 1 1 1 1 0 0 1 0 1 1 1 2 2 2 2
5 5 5 6 6 7 6 7 7 7 6 6 5 5 5 5 5 4 4 4 4 4 4 4 3 3 2 2 2 1 1 1 1 0 1 0 1 1 1 2 2 2 2
4 4 4 5 6 6 6 7 7 7 6 6 6 5 5 5 5 5 4 4 4 4 4 4 3 3 2 2 2 2 1 1 1 1 1 1 1 1 1 2 2 2 3
4 4 4 4 4 5 5 6 6 6 6 6 6 6 6 6 6 5 5 5 5 5 4 4 3 3 3 2 2 2 1 1 1 1 1 1 2 2 2 3 3 3 4
2 4 4 4 4 4 4 5 5 6 6 7 7 6 5 5 5 5 5 5 5 5 4 4 3 3 3 3 3 2 2 2 1 0 1 1 2 3 3 3 4 5 4
3 3 4 5 5 6 5 5 5 5 6 7 6 5 5 5 5 5 5 5 4 4 4 4 4 4 3 4 5 4 3 2 2 1 1 1 1 2 3 4 7 7 7
3 2 3 5 6 6 6 6 6 5 6 6 6 5 5 5 5 5 5 5 5 4 4 4 4 4 4 5 5 5 3 2 2 2 1 1 1 2 2 3 5 6 6
3 3 2 2 3 3 4 4 5 6 7 6 6 6 6 6 5 5 5 5 4 4 4 4 4 4 4 5 6 6 3 2 2 2 2 2 2 2 3 4 3 3 3
2 3 2 2 2 3 4 5 4 5 6 6 6 6 7 6 6 6 6 5 4 4 4 4 4 4 4 5 6 6 3 2 2 2 1 2 2 3 5 4 4 2 1
1 2 2 3 2 1 4 5 5 5 5 6 6 6 6 7 7 6 5 4 4 4 4 4 4 4 4 5 6 6 3 3 2 2 2 3 3 4 6 5 5 4 3
1 3 4 3 1 2 4 4 3 4 4 3 4 5 5 6 6 5 4 4 4 4 3 4 3 4 4 5 6 7 4 4 3 3 2 2 4 4 5 6 5 5 4
2 3 4 2 1 2 3 3 2 3 2 3 4 4 5 5 4 5 4 4 5 4 4 3 3 2 3 4 5 7 6 5 4 4 3 3 5 6 5 5 4 5 4
2 2 3 2 1 1 2 2 2 1 2 3 3 3 4 4 4 5 5 4 4 4 3 3 4 3 2 3 6 7 7 6 4 3 4 4 4 5 4 5 5 5 4
2 2 3 2 1 1 0 1 1 2 3 3 3 3 4 4 4 4 4 4 5 5 5 4 4 3 3 3 3 3 4 5 4 3 3 3 4 4 3 3 4 4 4
1 1 2 1 1 1 1 1 1 2 2 2 2 3 3 4 4 4 3 5 5 6 6 6 5 5 5 6 6 5 4 4 4 3 2 1 2 2 3 3 3 3 4
1 1 1 1 1 1 2 2 1 1 2 2 1 2 2 3 3 3 2 3 4 5 7 7 6 5 6 6 6 7 6 6 6 4 3 4 4 5 5 4 4 4 5
Wind_Direction
211 189 182 174 167 170 171 175 169 169 148 136 141 137 176 208 235 198 184 183 184 164 154 165 144 143 157 174 153 140 124 123 124 99 64 38 52 60 50 67 96 189 203
201 189 183 178 180 183 183 183 184 178 172 165 154 152 150 166 185 185 104 160 166 175 172 165 163 156 153 151 157 155 150 165 159 137 126 52 14 30 42 57 83 31 44
201 195 190 190 186 191 192 193 191 185 179 164 130 104 77 52 47 49 36 261 165 156 149 159 161 168 171 176 185 178 172 182 193 176 162 166 198 233 20 36 55 58 49
198 194 193 192 194 200 194 190 186 185 180 166 162 161 164 185 206 186 175 149 141 151 153 155 159 166 167 184 205 183 181 173 188 195 197 183 161 164 162 31 43 53 47
200 196 198 197 197 193 186 185 179 186 182 175 174 170 179 190 171 146 143 112 38 87 160 158 155 172 184 201 199 184 186 182 186 185 173 154 135 153 167 194 164 50 27
203 199 195 189 190 184 179 177 178 191 184 181 181 183 188 186 175 179 180 185 187 249 197 167 162 174 185 202 208 199 195 198 195 197 189 178 175 179 172 182 179 185 29
198 193 187 188 189 184 182 180 182 194 188 186 191 194 194 188 191 193 193 192 194 212 220 193 184 185 194 195 190 191 207 208 207 214 212 206 201 172 162 157 158 160 154
195 195 193 191 189 188 185 183 187 195 189 192 199 199 194 190 197 195 190 194 202 210 200 187 183 179 172 161 155 176 222 208 214 223 212 207 206 181 171 164 156 156 155
191 192 191 190 187 186 188 188 190 195 194 195 195 196 192 194 198 192 188 195 196 187 174 168 162 152 144 151 148 163 218 208 218 219 203 200 212 194 188 173 167 160 171
189 188 189 189 186 185 186 186 190 194 196 193 195 198 196 197 195 184 188 187 184 167 158 157 153 150 150 143 141 159 199 158 228 208 173 193 211 188 175 171 163 161 157
194 193 190 187 177 170 176 182 184 183 186 193 192 188 189 189 183 185 191 183 171 166 165 162 156 155 158 150 143 159 150 142 125 116 160 208 188 152 153 156 150 148 136
192 190 182 172 168 170 177 182 183 182 191 191 185 191 185 179 183 189 186 172 168 169 165 158 160 169 167 153 147 162 144 144 168 164 134 139 131 115 127 143 154 155 150
172 172 169 173 175 176 178 183 188 187 182 179 183 192 189 183 188 188 178 168 166 163 159 160 171 176 169 162 165 171 160 152 154 147 157 177 139 139 143 144 146 148 140
171 168 170 178 173 176 182 186 189 184 171 172 184 192 194 191 191 183 173 170 168 164 167 171 176 178 176 170 170 170 161 147 133 147 194 196 181 181 171 154 145 138 130
176 180 178 179 171 169 182 185 184 179 172 176 188 194 190 183 179 176 172 170 170 172 171 170 172 180 182 184 181 179 174 171 171 162 253 231 201 182 178 165 158 149 142
195 193 178 175 180 184 184 178 182 177 168 181 191 186 177 179 179 178 170 166 170 172 169 177 178 186 199 192 188 178 177 179 186 202 258 278 242 196 186 176 167 162 161
181 186 199 196 194 191 184 185 186 174 173 184 185 180 177 181 183 177 167 174 179 175 177 183 185 197 207 199 193 186 175 174 187 189 202 239 231 187 175 171 170 176 177
180 188 204 205 190 177 176 174 166 171 180 185 184 181 178 182 178 171 177 182 175 178 187 193 196 198 210 195 195 187 173 176 200 204 205 217 233 197 173 165 164 176 184
182 186 183 186 168 161 160 149 158 170 177 185 187 186 183 183 181 185 191 181 174 182 188 189 195 203 217 198 192 180 172 189 225 233 219 213 219 198 173 164 170 179 204
131 131 106 94 103 146 145 147 162 168 189 197 196 190 186 187 191 192 190 181 181 190 186 195 202 205 213 202 192 181 179 195 222 236 234 219 209 192 176 178 175 189 203
101 108 104 108 132 136 136 148 167 196 202 188 185 185 189 194 192 185 179 174 178 181 190 204 214 213 214 210 202 192 192 199 210 224 232 229 206 198 191 188 194 203 187
94 107 110 105 91 116 131 142 202 228 179 167 178 186 188 193 185 177 177 173 175 183 195 205 223 223 214 207 209 206 208 204 208 222 224 220 203 203 203 199 202 189 172
86 94 111 104 69 114 143 172 230 200 162 174 185 193 186 187 186 187 185 180 183 193 201 207 221 231 221 214 213 214 213 208 212 223 220 219 207 202 205 209 197 182 178
77 90 100 104 63 5 192 193 211 167 163 178 189 194 196 194 192 191 189 189 193 197 201 209 221 225 224 222 214 213 210 206 211 221 219 218 211 207 212 205 199 199 199
23 72 118 124 7 345 346 9 88 137 148 168 181 190 203 204 198 196 197 204 211 206 201 208 209 209 224 225 209 200 205 202 201 183 184 203 205 213 219 219 210 202 201
52 34 27 58 34 343 331 324 44 125 158 175 200 206 208 205 200 200 220 227 224 223 218 213 207 219 223 211 205 207 207 199 178 169 201 217 221 223 222 220 220 215 214